Time,TemperatureF,DewpointF,PressureIn,WindDirection,WindDirectionDegrees,WindSpeedMPH,WindSpeedGustMPH,Humidity,HourlyPrecipIn,Conditions,Clouds,dailyrainin,SoftwareType,DateUTC
2013-02-09 00:02:00,32.0,-99.9,-100.00,SW,226,0.0,0.0,-999,-99.99,,,-99.99,,2013-02-09 05:02:00,
2013-02-09 00:52:00,32.0,-99.9,-100.00,SW,224,0.0,0.0,-999,-99.99,,,-99.99,,2013-02-09 05:52:00,
2013-02-09 01:02:00,32.0,-99.9,-100.00,SW,224,0.0,0.0,-999,-99.99,,,-99.99,,2013-02-09 06:02:00,
2013-02-09 01:52:00,32.0,-99.9,-100.00,WSW,248,0.0,0.0,-999,-99.99,,,-99.99,,2013-02-09 06:52:00,
2013-02-09 02:01:00,32.0,-99.9,-100.00,WSW,248,0.0,0.0,-999,-99.99,,,-99.99,,2013-02-09 07:01:00,
2013-02-09 02:10:00,32.0,-99.9,-100.00,SW,236,0.0,0.0,-999,-99.99,,,-99.99,,2013-02-09 07:10:00,
2013-02-09 02:52:00,32.0,-99.9,-100.00,SW,236,0.0,0.0,-999,-99.99,,,-99.99,,2013-02-09 07:52:00,
2013-02-09 03:01:00,32.0,-99.9,-100.00,SW,236,0.0,0.0,-999,-99.99,,,-99.99,,2013-02-09 08:01:00,
2013-02-09 03:40:00,32.0,-99.9,-100.00,NW,326,0.0,0.0,-999,-99.99,,,-99.99,,2013-02-09 08:40:00,
2013-02-09 04:22:00,32.0,-99.9,-100.00,NW,326,0.0,0.0,-999,-99.99,,,-99.99,,2013-02-09 09:22:00,
2013-02-09 04:32:00,32.0,-99.9,-100.00,NW,326,0.0,0.0,-999,-99.99,,,-99.99,,2013-02-09 09:32:00,
2013-02-09 07:02:00,31.0,-99.9,-100.00,NW,323,0.0,0.0,-999,-99.99,,,-99.99,,2013-02-09 12:02:00,
2013-02-09 07:11:00,31.0,-99.9,-100.00,NW,323,0.0,0.0,-999,-99.99,,,-99.99,,2013-02-09 12:11:00,
2013-02-09 07:22:00,31.0,-99.9,-100.00,NW,323,0.0,0.0,-999,-99.99,,,-99.99,,2013-02-09 12:22:00,
2013-02-09 09:02:00,32.0,-99.9,-100.00,WSW,237,0.0,0.0,-999,-99.99,,,-99.99,,2013-02-09 14:02:00,
2013-02-09 09:12:00,32.0,-99.9,-100.00,WSW,237,0.0,0.0,-999,-99.99,,,-99.99,,2013-02-09 14:12:00,
2013-02-09 10:52:00,32.0,-99.9,-100.00,NW,320,0.0,0.0,-999,-99.99,,,-99.99,,2013-02-09 15:52:00,
2013-02-09 11:02:00,31.0,-99.9,-100.00,NW,320,0.0,0.0,-999,-99.99,,,-99.99,,2013-02-09 16:02:00,
2013-02-09 11:11:00,31.0,-99.9,-100.00,NW,320,0.0,0.0,-999,-99.99,,,-99.99,,2013-02-09 16:11:00,
2013-02-09 11:22:00,31.0,-99.9,-100.00,NW,320,0.0,0.0,-999,-99.99,,,-99.99,,2013-02-09 16:22:00,
2013-02-09 11:52:00,32.0,-99.9,-100.00,WSW,242,0.0,0.0,-999,-99.99,,,-99.99,,2013-02-09 16:52:00,
2013-02-09 12:00:00,35.0,-99.9,-100.00,WSW,241,0.0,0.0,-999,-99.99,,,-99.99,,2013-02-09 17:00:00,
2013-02-09 12:01:00,32.0,-99.9,-100.00,WSW,242,0.0,0.0,-999,-99.99,,,-99.99,,2013-02-09 17:01:00,
2013-02-09 12:11:00,32.0,-99.9,-100.00,WSW,242,0.0,0.0,-999,-99.99,,,-99.99,,2013-02-09 17:11:00,
2013-02-09 12:22:00,35.0,-99.9,-100.00,WSW,238,0.0,0.0,-999,-99.99,,,-99.99,,2013-02-09 17:22:00,
2013-02-09 12:32:00,35.0,-99.9,-100.00,WSW,238,0.0,0.0,-999,-99.99,,,-99.99,,2013-02-09 17:32:00,
2013-02-09 12:52:00,35.0,-99.9,-100.00,WSW,241,0.0,0.0,-999,-99.99,,,-99.99,,2013-02-09 17:52:00,
2013-02-09 13:23:00,37.0,-99.9,-100.00,WSW,251,0.0,0.0,-999,-99.99,,,-99.99,,2013-02-09 18:23:00,
2013-02-09 13:32:00,37.0,-99.9,-100.00,WSW,251,0.0,0.0,-999,-99.99,,,-99.99,,2013-02-09 18:32:00,
2013-02-09 13:42:00,37.0,-99.9,-100.00,WSW,251,0.0,0.0,-999,-99.99,,,-99.99,,2013-02-09 18:42:00,
2013-02-09 14:10:00,40.0,-99.9,-100.00,WSW,237,0.0,0.0,-999,-99.99,,,-99.99,,2013-02-09 19:10:00,
2013-02-09 14:52:00,40.0,-99.9,-100.00,WSW,237,0.0,0.0,-999,-99.99,,,-99.99,,2013-02-09 19:52:00,
2013-02-09 15:02:00,40.0,-99.9,-100.00,WSW,237,0.0,0.0,-999,-99.99,,,-99.99,,2013-02-09 20:02:00,
2013-02-09 16:22:00,43.0,-99.9,-100.00,SW,223,0.0,0.0,-999,-99.99,,,-99.99,,2013-02-09 21:22:00,
2013-02-09 16:32:00,43.0,-99.9,-100.00,SW,223,0.0,0.0,-999,-99.99,,,-99.99,,2013-02-09 21:32:00,
2013-02-09 17:02:00,41.0,-99.9,-100.00,NNW,327,0.0,0.0,-999,-99.99,,,-99.99,,2013-02-09 22:02:00,
2013-02-09 17:11:00,41.0,-99.9,-100.00,NNW,327,0.0,0.0,-999,-99.99,,,-99.99,,2013-02-09 22:11:00,
2013-02-09 17:22:00,41.0,-99.9,-100.00,NNW,327,0.0,0.0,-999,-99.99,,,-99.99,,2013-02-09 22:22:00,
2013-02-09 18:22:00,42.0,-99.9,-100.00,WSW,248,0.0,0.0,-999,-99.99,,,-99.99,,2013-02-09 23:22:00,
2013-02-09 18:32:00,41.0,-99.9,-100.00,SW,225,0.0,0.0,-999,-99.99,,,-99.99,,2013-02-09 23:32:00,
2013-02-09 18:42:00,41.0,-99.9,-100.00,SW,225,0.0,0.0,-999,-99.99,,,-99.99,,2013-02-09 23:42:00,
2013-02-09 18:52:00,40.0,-99.9,-100.00,WSW,239,0.0,0.0,-999,-99.99,,,-99.99,,2013-02-09 23:52:00,
2013-02-09 19:02:00,40.0,-99.9,-100.00,WSW,239,0.0,0.0,-999,-99.99,,,-99.99,,2013-02-10 00:02:00,
2013-02-09 19:30:00,39.0,-99.9,-100.00,SW,233,0.0,0.0,-999,-99.99,,,-99.99,,2013-02-10 00:30:00,
2013-02-09 20:22:00,39.0,-99.9,-100.00,SW,233,0.0,0.0,-999,-99.99,,,-99.99,,2013-02-10 01:22:00,
2013-02-09 21:02:00,34.0,-99.9,-100.00,SW,224,0.0,0.0,-999,-99.99,,,-99.99,,2013-02-10 02:02:00,
2013-02-09 21:11:00,34.0,-99.9,-100.00,SW,224,0.0,0.0,-999,-99.99,,,-99.99,,2013-02-10 02:11:00,
2013-02-09 21:22:00,34.0,-99.9,-100.00,SW,224,0.0,0.0,-999,-99.99,,,-99.99,,2013-02-10 02:22:00,
2013-02-09 21:32:00,32.0,-99.9,-100.00,WSW,239,0.0,0.0,-999,-99.99,,,-99.99,,2013-02-10 02:32:00,
2013-02-09 21:42:00,32.0,-99.9,-100.00,WSW,239,0.0,0.0,-999,-99.99,,,-99.99,,2013-02-10 02:42:00,
2013-02-09 21:52:00,32.0,-99.9,-100.00,WSW,239,0.0,0.0,-999,-99.99,,,-99.99,,2013-02-10 02:52:00,
2013-02-09 22:00:00,30.0,-99.9,-100.00,SW,227,0.0,0.0,-999,-99.99,,,-99.99,,2013-02-10 03:00:00,
2013-02-09 22:52:00,30.0,-99.9,-100.00,SW,227,0.0,0.0,-999,-99.99,,,-99.99,,2013-02-10 03:52:00,
2013-02-09 23:32:00,32.0,-99.9,-100.00,WSW,240,0.0,0.0,-999,-99.99,,,-99.99,,2013-02-10 04:32:00,
2013-02-09 23:42:00,32.0,-99.9,-100.00,WSW,240,0.0,0.0,-999,-99.99,,,-99.99,,2013-02-10 04:42:00,
2013-02-09 23:52:00,32.0,-99.9,-100.00,WSW,240,0.0,0.0,-999,-99.99,,,-99.99,,2013-02-10 04:52:00,